| time (UTC) | temp C | wind direction | speed KPH | gust KPH | rain 1hr cm | rain 24hr cm | rain mn cm | humidity % | barometer mb |
| 20260505100800 | 15 | 323 | 0.0 | 1.6 | 0.00 | 0.00 | 0.00 | 77 | 1002.7 |
| 20260505095257 | 15 | 300 | 1.6 | 3.2 | 0.00 | 0.00 | 0.00 | 79 | 1002.9 |
| 20260505093756 | 15 | 304 | 0.0 | 3.2 | 0.00 | 0.00 | 0.00 | 80 | 1003.0 |
| 20260505092255 | 14 | 311 | 0.0 | 1.6 | 0.00 | 0.00 | 0.00 | 84 | 1003.1 |
| 20260505090754 | 14 | 353 | 0.0 | 1.6 | 0.00 | 0.00 | 0.00 | 84 | 1003.4 |
| 20260505085252 | 14 | 315 | 1.6 | 4.8 | 0.00 | 0.00 | 0.00 | 84 | 1003.1 |
| 20260505083751 | 15 | 217 | 0.0 | 0.0 | 0.00 | 0.00 | 0.00 | 83 | 1002.9 |
| 20260505082247 | 16 | 103 | 1.6 | 6.4 | 0.00 | 0.00 | 0.00 | 76 | 1003.0 |
| 20260505080743 | 16 | 249 | 3.2 | 14.5 | 0.00 | 0.00 | 0.00 | 71 | 1002.9 |
| 20260505075243 | 17 | 98 | 0.0 | 3.2 | 0.00 | 0.00 | 0.00 | 69 | 1002.9 |
| 20260505073741 | 17 | 276 | 1.6 | 4.8 | 0.00 | 0.00 | 0.00 | 70 | 1002.9 |
| 20260505072237 | 16 | 331 | 0.0 | 1.6 | 0.00 | 0.00 | 0.00 | 72 | 1002.9 |
| 20260505070734 | 17 | 286 | 0.0 | 0.0 | 0.00 | 0.00 | 0.00 | 70 | 1002.6 |
| 20260505065228 | 17 | 307 | 1.6 | 3.2 | 0.00 | 0.00 | 0.00 | 69 | 1003.0 |
| 20260505063726 | 18 | 314 | 0.0 | 1.6 | 0.00 | 0.00 | 0.00 | 66 | 1002.7 |
| 20260505062222 | 18 | 242 | 1.6 | 3.2 | 0.00 | 0.00 | 0.00 | 63 | 1002.6 |
| 20260505060720 | 19 | 305 | 0.0 | 1.6 | 0.00 | 0.00 | 0.00 | 62 | 1002.4 |
| 20260505055220 | 19 | 23 | 0.0 | 1.6 | 0.00 | 0.00 | 0.00 | 62 | 1002.1 |
| 20260505053720 | 18 | 279 | 1.6 | 1.6 | 0.00 | 0.00 | 0.00 | 62 | 1002.0 |
| 20260505052216 | 19 | 266 | 1.6 | 3.2 | 0.00 | 0.00 | 0.00 | 62 | 1001.9 |
| 20260505050715 | 19 | 209 | 0.0 | 3.2 | 0.00 | 0.00 | 0.00 | 61 | 1001.9 |
| 20260505040700 | 19 | 179 | 1.6 | 3.2 | 0.00 | 0.00 | 0.00 | 60 | 1002.1 |
| 20260505035156 | 19 | 6 | 0.0 | 1.6 | 0.00 | 0.00 | 0.00 | 62 | 1002.3 |
| 20260505033652 | 19 | 100 | 1.6 | 6.4 | 0.00 | 0.00 | 0.00 | 61 | 1002.5 |
| 20260505032149 | 19 | 53 | 0.0 | 1.6 | 0.00 | 0.00 | 0.00 | 62 | 1002.6 |
| 20260505030646 | 19 | 285 | 1.6 | 3.2 | 0.00 | 0.00 | 0.00 | 61 | 1002.8 |
| 20260505025142 | 19 | 254 | 0.0 | 1.6 | 0.00 | 0.00 | 0.00 | 61 | 1002.6 |
| 20260505023639 | 18 | 305 | 0.0 | 0.0 | 0.00 | 0.00 | 0.00 | 63 | 1002.5 |
| 20260505022137 | 18 | 134 | 0.0 | 1.6 | 0.00 | 0.00 | 0.00 | 63 | 1002.6 |
| 20260505020631 | 19 | 320 | 1.6 | 1.6 | 0.00 | 0.00 | 0.00 | 63 | 1002.3 |
| 20260505015127 | 20 | 131 | 3.2 | 6.4 | 0.00 | 0.00 | 0.00 | 60 | 1002.5 |
| 20260505013625 | 20 | 31 | 0.0 | 1.6 | 0.00 | 0.00 | 0.00 | 59 | 1002.6 |
| 20260505012122 | 20 | 307 | 0.0 | 1.6 | 0.00 | 0.00 | 0.00 | 57 | 1002.1 |
| 20260505010622 | 20 | 302 | 0.0 | 4.8 | 0.00 | 0.00 | 0.00 | 56 | 1002.3 |
| 20260505005118 | 20 | 302 | 0.0 | 4.8 | 0.00 | 0.00 | 0.00 | 55 | 1002.1 |
| 20260505003615 | 21 | 101 | 0.0 | 4.8 | 0.00 | 0.00 | 0.00 | 53 | 1001.9 |
| 20260505002112 | 21 | 322 | 1.6 | 3.2 | 0.00 | 0.00 | 0.00 | 51 | 1002.1 |
| 20260505000609 | 22 | 150 | 3.2 | 4.8 | 0.00 | 0.00 | 0.00 | 49 | 1002.0 |
| 20260504235106 | 22 | 318 | 1.6 | 6.4 | 0.00 | 0.00 | 0.00 | 46 | 1002.2 |
| 20260504233601 | 22 | 310 | 3.2 | 3.2 | 0.00 | 0.00 | 0.00 | 47 | 1002.0 |
| 20260504232058 | 23 | 77 | 1.6 | 3.2 | 0.00 | 0.00 | 0.00 | 46 | 1001.8 |
| 20260504230558 | 23 | 271 | 3.2 | 6.4 | 0.00 | 0.00 | 0.00 | 47 | 1001.7 |
| 20260504225057 | 23 | 21 | 1.6 | 11.3 | 0.00 | 0.00 | 0.00 | 47 | 1001.8 |
| 20260504223554 | 23 | 106 | 1.6 | 4.8 | 0.00 | 0.00 | 0.00 | 47 | 1001.8 |
| 20260504222050 | 23 | 317 | 1.6 | 11.3 | 0.00 | 0.00 | 0.00 | 47 | 1002.0 |
| 20260504220546 | 25 | 90 | 1.6 | 1.6 | 0.00 | 0.00 | 0.00 | 46 | 1001.9 |
| 20260504215043 | 25 | 293 | 3.2 | 9.7 | 0.00 | 0.00 | 0.00 | 46 | 1001.9 |
| 20260504213544 | 24 | 116 | 1.6 | 3.2 | 0.00 | 0.00 | 0.00 | 48 | 1001.6 |
| 20260504212040 | 25 | 291 | 3.2 | 4.8 | 0.00 | 0.00 | 0.00 | 48 | 1001.8 |
| 20260504210537 | 24 | 233 | 1.6 | 3.2 | 0.00 | 0.00 | 0.00 | 50 | 1002.1 |
| 20260504205035 | 23 | 198 | 1.6 | 6.4 | 0.00 | 0.00 | 0.00 | 50 | 1002.5 |
| 20260504203534 | 24 | 233 | 1.6 | 14.5 | 0.00 | 0.00 | 0.00 | 49 | 1002.3 |
| 20260504202030 | 23 | 334 | 1.6 | 16.1 | 0.00 | 0.00 | 0.00 | 51 | 1002.4 |
| 20260504200527 | 25 | 298 | 3.2 | 11.3 | 0.00 | 0.00 | 0.00 | 50 | 1002.4 |
| 20260504195023 | 25 | 143 | 3.2 | 11.3 | 0.00 | 0.00 | 0.00 | 48 | 1002.5 |
| 20260504193517 | 24 | 105 | 3.2 | 9.7 | 0.00 | 0.00 | 0.00 | 48 | 1002.8 |
| 20260504192012 | 24 | 320 | 1.6 | 3.2 | 0.00 | 0.00 | 0.00 | 52 | 1002.8 |
| 20260504190507 | 25 | 2 | 1.6 | 6.4 | 0.00 | 0.00 | 0.00 | 50 | 1003.3 |
| 20260504185003 | 24 | 103 | 1.6 | 3.2 | 0.00 | 0.00 | 0.00 | 53 | 1003.6 |
| 20260504183503 | 22 | 312 | 1.6 | 6.4 | 0.00 | 0.00 | 0.00 | 53 | 1003.9 |
| 20260504182000 | 23 | 324 | 1.6 | 6.4 | 0.00 | 0.00 | 0.00 | 54 | 1004.1 |
| 20260504180500 | 23 | 114 | 3.2 | 6.4 | 0.00 | 0.00 | 0.00 | 52 | 1004.2 |
| 20260504174958 | 22 | 71 | 1.6 | 3.2 | 0.00 | 0.00 | 0.00 | 55 | 1004.3 |
| 20260504173455 | 22 | 102 | 0.0 | 3.2 | 0.00 | 0.00 | 0.00 | 54 | 1004.6 |
| 20260504171951 | 21 | 297 | 3.2 | 3.2 | 0.00 | 0.00 | 0.00 | 55 | 1004.4 |
| 20260504170447 | 21 | 112 | 1.6 | 3.2 | 0.00 | 0.00 | 0.00 | 55 | 1004.9 |
| 20260504160436 | 19 | 280 | 1.6 | 6.4 | 0.00 | 0.00 | 0.00 | 58 | 1005.5 |
| 20260504150426 | 18 | 75 | 3.2 | 4.8 | 0.00 | 0.00 | 0.00 | 59 | 1005.8 |
| 20260504140411 | 16 | 23 | 0.0 | 1.6 | 0.00 | 0.00 | 0.00 | 62 | 1005.9 |
| 20260504130400 | 14 | 312 | 0.0 | 1.6 | 0.00 | 0.00 | 0.00 | 65 | 1006.5 |
| 20260504110340 | 10 | 348 | 0.0 | 3.2 | 0.00 | 0.00 | 0.00 | 73 | 1006.6 |